User: anonymous   Login
Location: Banios
(43.0451°N, 0.2335°E)
Time: 07:06:40
(UTC+00:00)
Language:

SWAS - Orbit

View from above orbital plane
View from above orbital plane
View from above satellite
View from above satellite

Ground track
Ground track

The orbit data is extracted from the following two-line orbital elements,

1 25560U 98071A   21101.94305858  .00000211  00000-0  28325-4 0  9998
2 25560  69.9003 352.5558 0010888 255.4129 104.5820 14.94040975213585
Epoch (UTC): 11 April 2021 22:38:00
Eccentricity: 0.0010888
inclination: 69.9003°
perigee height: 578 km
apogee height: 593 km
right ascension of ascending node: 352.5558°
argument of perigee: 255.4129°
revolutions per day: 14.94040975
mean anomaly at epoch: 104.5820°
orbit number at epoch: 21358

The dashed part of the orbit path shows where the satellite is in the earth's shadow,  

DLR